Date String (YYYY-MM-DD hh:mm:ss) UTC,Instrument flags,Ambient pressure (hPa),Sample flow (lpm),Bypass flow (lpm),Sample temperature (°C),Ambient temperature (°C),ASC tube jacket temperature (°C),LED temperature (°C),Box temperature (°C),Sample RH (%),Span deviation,Mass concentration (μg/m³),Mass concentration (μg/m³),Mass concentration (μg/m³)
DateTimeUTC,F1_M11,P_M11,Q1_M11,Q2_M11,T1_M11,T2_M11,T3_M11,T4_M11,T5_M11,U1_M11,ZSPAN_M11,X0_M11,X2_M11,X1_M11
2022-05-15 00:00:00,,0824.9,4.99,0.00,29.3,27.6,00.0,38.2,31.2,11.0,0000.0,0014.11,0004.40,0003.27
2022-05-15 00:01:00,,0824.9,5.01,0.00,29.4,27.9,00.0,38.2,31.3,11.8,0000.0,0015.12,0004.44,0003.32
2022-05-15 00:02:00,,0824.9,5.00,0.00,29.4,28.2,00.0,38.2,31.3,11.2,0000.0,0015.16,0004.49,0003.37
2022-05-15 00:03:00,,0824.9,5.00,0.00,29.5,28.4,00.0,38.2,31.4,11.4,0000.0,0015.07,0004.49,0003.41
2022-05-15 00:04:00,,0824.9,5.00,0.00,29.5,28.6,00.0,38.3,31.4,11.4,0000.0,0014.57,0004.52,0003.45
2022-05-15 00:05:00,,0824.9,4.99,0.00,29.6,28.7,00.0,38.3,31.5,10.8,0000.0,0014.20,0004.52,0003.48
2022-05-15 00:06:00,,0824.9,5.00,0.00,29.6,28.8,00.0,38.3,31.6,10.7,0000.0,0013.61,0004.52,0003.50
2022-05-15 00:07:00,,0824.9,5.00,0.00,29.7,28.8,00.0,38.4,31.6,10.5,0000.0,0013.55,0004.54,0003.51
2022-05-15 00:08:00,,0824.9,5.00,0.00,29.6,27.1,00.0,38.4,31.1,10.7,0000.0,0013.17,0004.50,0003.50
2022-05-15 00:09:00,,0824.9,5.00,0.00,29.4,25.0,00.0,38.3,30.7,11.4,0000.0,0012.84,0004.47,0003.50
2022-05-15 00:10:00,,0824.9,5.00,0.00,29.3,25.1,00.0,38.3,30.8,11.4,0000.0,0012.74,0004.43,0003.48
2022-05-15 00:11:00,,0824.9,5.01,0.00,29.3,25.6,00.0,38.2,30.8,11.5,0000.0,0012.22,0004.40,0003.47
2022-05-15 00:12:00,,0824.9,4.99,0.00,29.2,26.1,00.0,38.2,30.9,11.4,0000.0,0011.35,0004.41,0003.45
2022-05-15 00:13:00,,0824.9,5.00,0.00,29.2,26.7,00.0,38.2,31.0,11.5,0000.0,0011.08,0004.39,0003.42
2022-05-15 00:14:00,,0824.9,5.00,0.00,29.3,27.1,00.0,38.2,31.1,11.5,0000.0,0010.96,0004.38,0003.39
2022-05-15 00:15:00,,0824.9,5.00,0.00,29.3,27.5,00.0,38.2,31.1,11.2,0000.0,0010.87,0004.37,0003.36
2022-05-15 00:16:00,,0824.9,5.01,0.00,29.3,27.8,00.0,38.2,31.2,11.7,0000.0,0010.89,0004.38,0003.33
2022-05-15 00:17:00,,0824.9,4.99,0.00,29.4,28.1,00.0,38.2,31.3,12.0,0000.0,0010.92,0004.42,0003.33
2022-05-15 00:18:00,,0824.9,5.00,0.00,29.4,28.3,00.0,38.2,31.3,12.2,0000.0,0011.05,0004.43,0003.33
2022-05-15 00:19:00,,0825.0,5.00,0.00,29.5,28.5,00.0,38.2,31.4,12.0,0000.0,0011.13,0004.43,0003.31
2022-05-15 00:20:00,,0825.0,5.00,0.00,29.5,28.6,00.0,38.3,31.5,11.3,0000.0,0010.53,0004.39,0003.31
2022-05-15 00:21:00,,0825.0,4.99,0.00,29.6,28.8,00.0,38.3,31.5,11.2,0000.0,0011.42,0004.37,0003.30
2022-05-15 00:22:00,,0825.0,5.01,0.00,29.6,28.7,00.0,38.3,31.5,11.5,0000.0,0011.26,0004.38,0003.29
2022-05-15 00:23:00,,0825.1,5.01,0.00,29.6,26.8,00.0,38.3,31.1,11.7,0000.0,0011.19,0004.38,0003.28
2022-05-15 00:24:00,,0825.1,5.00,0.00,29.4,25.0,00.0,38.3,30.7,11.9,0000.0,0011.32,0004.38,0003.29
2022-05-15 00:25:00,,0825.0,5.00,0.00,29.3,25.1,00.0,38.3,30.7,12.0,0000.0,0011.57,0004.40,0003.30
2022-05-15 00:26:00,,0825.1,4.99,0.00,29.2,25.6,00.0,38.2,30.8,12.2,0000.0,0011.92,0004.39,0003.29
2022-05-15 00:27:00,,0825.1,5.00,0.00,29.2,26.2,00.0,38.2,30.8,12.2,0000.0,0011.96,0004.39,0003.27
2022-05-15 00:28:00,,0825.1,5.00,0.00,29.2,26.7,00.0,38.2,30.9,12.0,0000.0,0012.49,0004.35,0003.24
2022-05-15 00:29:00,,0825.1,4.99,0.00,29.2,27.1,00.0,38.1,31.0,11.6,0000.0,0012.59,0004.31,0003.22
2022-05-15 00:30:00,,0825.1,4.99,0.00,29.3,27.5,00.0,38.1,31.1,11.6,0000.0,0012.14,0004.24,0003.20
2022-05-15 00:31:00,,0825.1,5.00,0.00,29.3,27.7,00.0,38.2,31.2,11.3,0000.0,0012.23,0004.26,0003.18
2022-05-15 00:32:00,,0825.1,5.00,0.00,29.3,28.0,00.0,38.2,31.2,11.6,0000.0,0011.11,0004.27,0003.16
2022-05-15 00:33:00,,0825.1,5.00,0.00,29.4,28.2,00.0,38.2,31.3,11.4,0000.0,0010.46,0004.23,0003.15
2022-05-15 00:34:00,,0825.1,5.01,0.00,29.4,28.4,00.0,38.2,31.4,11.3,0000.0,0010.54,0004.20,0003.14
2022-05-15 00:35:00,,0825.1,4.99,0.00,29.5,28.5,00.0,38.2,31.4,11.5,0000.0,0011.14,0004.16,0003.09
2022-05-15 00:36:00,,0825.1,5.00,0.00,29.5,28.7,00.0,38.3,31.4,11.5,0000.0,0010.79,0004.12,0003.03
2022-05-15 00:37:00,,0825.1,5.00,0.00,29.6,28.8,00.0,38.3,31.5,11.2,0000.0,0010.54,0004.11,0002.98
2022-05-15 00:38:00,,0825.1,5.01,0.00,29.6,28.7,00.0,38.3,31.5,11.1,0000.0,0011.02,0004.11,0002.96
2022-05-15 00:39:00,,0825.1,5.00,0.00,29.6,26.8,00.0,38.3,31.1,11.0,0000.0,0010.97,0004.10,0002.92
2022-05-15 00:40:00,,0825.1,5.00,0.00,29.4,24.9,00.0,38.3,30.7,11.1,0000.0,0010.72,0004.09,0002.88
2022-05-15 00:41:00,,0825.1,4.99,0.00,29.3,25.1,00.0,38.3,30.7,11.2,0000.0,0010.89,0004.09,0002.81
2022-05-15 00:42:00,,0825.1,5.01,0.00,29.2,25.6,00.0,38.2,30.8,11.0,0000.0,0011.00,0004.07,0002.74
2022-05-15 00:43:00,,0825.1,5.00,0.00,29.2,26.1,00.0,38.2,30.9,11.2,0000.0,0010.95,0004.02,0002.68
2022-05-15 00:44:00,,0825.1,5.00,0.00,29.2,26.6,00.0,38.2,30.9,11.4,0000.0,0010.92,0003.99,0002.63
2022-05-15 00:45:00,,0825.1,5.01,0.00,29.2,27.0,00.0,38.2,31.0,11.4,0000.0,0010.94,0003.94,0002.57
2022-05-15 00:46:00,,0825.0,5.00,0.00,29.3,27.4,00.0,38.2,31.1,10.6,0000.0,0010.18,0003.91,0002.50
2022-05-15 00:47:00,,0825.2,5.00,0.00,29.3,27.7,00.0,38.2,31.2,10.5,0000.0,0009.94,0003.87,0002.46
2022-05-15 00:48:00,,0825.2,4.99,0.00,29.3,27.9,00.0,38.2,31.2,10.8,0000.0,0009.91,0003.83,0002.43
2022-05-15 00:49:00,,0825.2,5.01,0.00,29.4,28.1,00.0,38.2,31.3,11.0,0000.0,0009.80,0003.87,0002.41
2022-05-15 00:50:00,,0825.2,5.00,0.00,29.4,28.3,00.0,38.2,31.3,10.8,0000.0,0009.90,0003.89,0002.41
2022-05-15 00:51:00,,0825.2,4.99,0.00,29.5,28.5,00.0,38.2,31.4,10.9,0000.0,0009.63,0003.82,0002.40
2022-05-15 00:52:00,,0825.2,4.99,0.00,29.5,28.6,00.0,38.2,31.4,10.8,0000.0,0009.63,0003.82,0002.38
2022-05-15 00:53:00,,0825.2,5.01,0.00,29.6,28.7,00.0,38.3,31.5,10.6,0000.0,0009.53,0003.78,0002.40
2022-05-15 00:54:00,,0825.3,5.00,0.00,29.6,28.8,00.0,38.3,31.6,10.5,0000.0,0010.00,0003.75,0002.41
2022-05-15 00:55:00,,0825.3,4.99,0.00,29.7,28.9,00.0,38.3,31.6,10.7,0000.0,0009.86,0003.71,0002.41
2022-05-15 00:56:00,,0825.3,5.01,0.00,29.7,28.9,00.0,38.4,31.6,10.6,0000.0,0009.72,0003.70,0002.39
2022-05-15 00:57:00,,0825.3,5.01,0.00,29.7,27.2,00.0,38.4,31.2,10.7,0000.0,0009.54,0003.72,0002.38
2022-05-15 00:58:00,,0825.3,4.99,0.00,29.5,26.0,00.0,38.4,31.0,11.0,0000.0,0009.79,0003.71,0002.37
2022-05-15 00:59:00,,0825.3,5.01,0.00,29.5,26.2,00.0,38.4,31.0,11.2,0000.0,0010.45,0003.74,0002.39
